Location: Passau
(48.5830°N, 13.4830°E)
Time: 19:50:30
(UTC+02:00)

Vanguard 3 - Pass Details

Date: 21 May 2024
Orbit: 509 x 3231 km, 33.3° (Epoch: 15 June)

Event Time Altitude Azimuth Distance (km) Brightness Sun altitude
Rises 20:24:02 0° 229° (SW) 4,337 11.2 2.6°
Reaches altitude 10° 20:26:49 10° 220° (SW) 3,686 10.7 2.2°
Maximum altitude 20:35:45 36° 158° (SSE) 3,046 9.7 1.0°
Drops below altitude 10° 20:49:33 10° 102° (ESE) 5,704 10.9 -1.0°
Sets 20:55:07 0° 95° (E) 6,987 11.4 -1.7°
